1512601200.45,35250,3.94,73544.8,-4.49,-5.07,-5.07,0,*58
1512601201.72,35251,3.94,73544.3,-4.51,-5.07,-5.03,0,*54
1512601203.0,35252,3.94,73550.5,-4.51,-5.07,-5.07,0,*53
1512601204.28,35253,3.94,73548.8,-4.51,-5.07,-5.07,0,*52
1512601205.56,35254,3.94,73546.3,-4.51,-5.07,-5.07,0,*55
1512601206.83,35255,3.94,73550.0,-4.51,-5.07,-5.07,0,*54
1512601208.08,35256,3.94,73550.0,-4.49,-5.07,-5.07,0,*5E
1512601209.36,35257,3.94,73552.0,-4.51,-5.15,-5.07,0,*55
1512601210.64,35258,3.94,73552.0,-4.51,-5.07,-5.07,0,*59
1512601211.91,35259,3.94,73548.3,-4.51,-5.15,-5.07,0,*5B
1512601213.19,35260,3.94,73548.0,-4.51,-5.15,-5.07,0,*51
1512601214.46,35261,3.94,73550.3,-4.51,-5.15,-5.15,0,*53
1512601215.74,35262,3.94,73544.3,-4.51,-5.07,-5.15,0,*53
1512601217.01,35263,3.94,73548.3,-4.51,-5.07,-5.07,0,*51
1512601218.29,35264,3.94,73550.0,-4.51,-5.07,-5.07,0,*56
1512601219.54,35265,3.94,73548.5,-4.49,-5.07,-5.07,0,*5E
1512601220.79,35266,3.94,73548.3,-4.49,-5.15,-5.07,0,*5E
1512601222.07,35267,3.94,73554.5,-4.51,-5.07,-5.07,0,*55
1512601223.32,35268,3.94,73552.8,-4.49,-5.07,-5.07,0,*53
1512601224.59,35269,3.94,73556.5,-4.47,-5.11,-5.11,0,*5C
1512601225.84,35270,3.94,73554.0,-4.49,-5.15,-5.03,0,*5D
1512601227.09,35271,3.94,73554.5,-4.49,-5.15,-5.07,0,*58
1512601228.34,35272,3.94,73560.3,-4.49,-5.15,-5.07,0,*5B
1512601229.59,35273,3.94,73556.0,-4.49,-5.15,-5.07,0,*5A
1512601230.84,35274,3.94,73560.0,-4.49,-5.19,-5.07,0,*51
1512601232.08,35275,3.94,73566.0,-4.49,-5.15,-5.15,0,*5F
1512601233.33,35276,3.94,73562.3,-4.49,-5.15,-5.07,0,*5F
1512601234.58,35277,3.94,73566.5,-4.49,-5.15,-5.07,0,*5E
1512601235.83,35278,3.94,73560.5,-4.49,-5.15,-5.15,0,*52
1512601237.08,35279,3.94,73570.3,-4.49,-5.15,-5.07,0,*50
1512601238.35,35280,3.94,73570.0,-4.47,-5.15,-5.03,0,*5C
1512601239.6,35281,3.94,73570.5,-4.49,-5.15,-5.07,0,*57
1512601240.86,35282,3.94,73566.3,-4.49,-5.15,-5.07,0,*54
1512601242.1,35283,3.94,73568.3,-4.49,-5.15,-5.15,0,*56
1512601243.37,35284,3.94,73568.8,-4.47,-5.11,-5.15,0,*5B
1512601244.61,35285,3.94,73566.0,-4.49,-5.15,-5.15,0,*50
1512601245.88,35286,3.94,73566.3,-4.47,-5.11,-5.03,0,*5E
1512601247.13,35287,3.94,73568.3,-4.49,-5.15,-5.07,0,*51
1512601248.4,35288,3.94,73568.5,-4.47,-5.03,-5.03,0,*53
1512601249.65,35289,3.94,73554.0,-4.49,-5.07,-5.07,0,*5C
1512601250.92,35290,3.94,73560.3,-4.47,-5.11,-5.03,0,*59
1512601252.17,35291,3.94,73558.5,-4.49,-5.03,-5.07,0,*51
1512601253.45,35292,3.94,73566.0,-4.47,-5.03,-5.03,0,*58
1512601254.7,35293,3.94,73572.0,-4.49,-5.07,-5.07,0,*57
1512601255.94,35294,3.94,73574.0,-4.47,-4.99,-5.03,0,*5C
1512601257.19,35295,3.94,73556.8,-4.49,-5.07,-5.07,0,*51
1512601258.44,35296,3.94,73558.8,-4.49,-5.03,-5.03,0,*52
1512601259.71,35297,3.94,73558.5,-4.51,-5.07,-5.03,0,*5E
1512601260.99,35298,3.94,73552.0,-4.47,-5.03,-5.03,0,*52
1512601262.19,35299,3.94,73546.5,-4.47,-4.99,-4.99,0,*53
1512601263.41,35300,3.94,73550.5,-4.49,-5.03,-4.99,0,*5E
1512601264.66,35301,3.94,73550.5,-4.49,-5.03,-5.07,0,*59
1512601265.9,35302,3.94,73558.8,-4.47,-4.99,-5.03,0,*52
1512601267.15,35303,3.94,73558.5,-4.49,-5.07,-5.15,0,*5C
1512601268.42,35304,3.94,73554.8,-4.47,-5.03,-5.03,0,*56
1512601269.66,35305,3.94,73558.8,-4.47,-4.99,-5.11,0,*56
1512601270.91,35306,3.94,73550.0,-4.49,-5.03,-5.03,0,*5A
1512601272.16,35307,3.94,73540.8,-4.49,-5.03,-5.07,0,*5F
1512601273.41,35308,3.94,73542.8,-4.49,-5.07,-5.07,0,*54
1512601274.68,35309,3.94,73546.3,-4.47,-5.03,-5.03,0,*5B
1512601275.93,35310,3.94,73546.0,-4.49,-5.07,-5.07,0,*5D
1512601277.18,35311,3.94,73540.3,-4.49,-5.03,-5.07,0,*58
1512601278.46,35312,3.94,73538.5,-4.47,-5.03,-5.03,0,*51
1512601279.73,35313,3.94,73552.8,-4.47,-5.11,-5.03,0,*53
1512601280.96,35314,3.94,73550.8,-4.47,-5.11,-4.99,0,*56
1512601282.2,35315,3.94,73550.0,-4.47,-5.03,-4.99,0,*54
1512601283.46,35316,3.94,73536.3,-4.47,-5.11,-5.03,0,*56
1512601284.73,35317,3.94,73532.0,-4.47,-5.11,-5.03,0,*57
1512601286.0,35318,3.94,73540.3,-4.47,-5.03,-5.11,0,*58
1512601287.27,35319,3.94,73548.5,-4.47,-5.03,-5.15,0,*5D
1512601288.54,35320,3.94,73560.3,-4.47,-5.03,-5.03,0,*50
1512601289.82,35321,3.94,73578.5,-4.47,-5.03,-5.03,0,*51
1512601291.09,35322,3.94,73572.0,-4.47,-5.03,-5.03,0,*52
1512601292.36,35323,3.94,73562.8,-4.47,-5.03,-5.03,0,*53
1512601293.63,35324,3.94,73550.3,-4.47,-5.11,-5.11,0,*54
1512601294.85,35325,3.94,73552.5,-4.45,-4.99,-5.03,0,*55
1512601296.11,35326,3.94,73554.8,-4.47,-5.11,-5.03,0,*55
1512601297.38,35327,3.94,73554.0,-4.47,-5.11,-5.03,0,*54
1512601298.65,35328,3.94,73558.5,-4.47,-5.03,-5.03,0,*58
1512601299.91,35329,3.94,73560.0,-4.45,-5.03,-5.03,0,*5B
1512601301.16,35330,3.94,73556.0,-4.45,-5.03,-5.03,0,*53
1512601302.41,35331,3.94,73542.3,-4.45,-5.03,-5.03,0,*52
1512601303.63,35332,3.94,73536.8,-4.45,-4.99,-5.03,0,*53
1512601304.88,35333,3.94,73534.5,-4.45,-5.03,-5.03,0,*50
1512601306.09,35334,3.94,73534.8,-4.43,-4.99,-4.99,0,*51
1512601307.34,35335,3.88,73546.3,-4.45,-5.03,-5.03,0,*56
1512601308.56,35336,3.94,73550.5,-4.45,-4.99,-5.03,0,*57
1512601309.77,35337,3.94,73552.5,-4.43,-4.99,-4.99,0,*52
1512601311.04,35338,3.94,73550.8,-4.47,-5.03,-5.03,0,*59
1512601312.28,35339,3.94,73546.5,-4.43,-4.99,-4.93,0,*56
1512601313.49,35340,3.94,73548.5,-4.43,-4.99,-4.99,0,*52
1512601314.71,35341,3.94,73550.3,-4.45,-5.03,-4.99,0,*57
1512601315.96,35342,3.94,73548.5,-4.45,-5.03,-5.03,0,*56
1512601317.21,35343,3.94,73550.8,-4.45,-5.03,-5.03,0,*57
1512601318.46,35344,3.94,73554.3,-4.45,-5.03,-5.03,0,*50
1512601319.73,35345,3.94,73554.0,-4.43,-5.07,-4.93,0,*5B
1512601320.98,35346,3.94,73548.5,-4.45,-4.89,-5.03,0,*51
1512601322.23,35347,3.94,73540.3,-4.45,-5.03,-5.11,0,*50
1512601323.48,35348,3.94,73538.0,-4.45,-5.03,-5.03,0,*5C
1512601324.74,35349,3.94,73528.3,-4.45,-5.03,-5.03,0,*5D
1512601325.96,35350,3.94,73558.0,-4.45,-4.99,-5.03,0,*57
1512601327.21,35351,3.94,73560.5,-4.45,-5.03,-5.03,0,*54
1512601328.42,35352,3.94,73558.3,-4.43,-4.99,-4.99,0,*51
1512601329.67,35353,3.94,73546.3,-4.45,-5.03,-5.03,0,*56
1512601330.89,35354,3.94,73544.5,-4.45,-4.99,-5.03,0,*53
1512601332.14,35355,3.94,73542.8,-4.45,-5.03,-5.03,0,*50
1512601333.39,35356,3.94,73510.8,-4.45,-5.03,-5.11,0,*50
1512601334.64,35357,3.94,73514.0,-4.45,-5.03,-5.11,0,*51
1512601335.89,35358,3.94,73524.8,-4.45,-5.11,-5.03,0,*5E
1512601337.16,35359,3.94,73528.3,-4.43,-5.07,-5.07,0,*5A
1512601338.41,35360,3.94,73524.0,-4.45,-5.03,-5.03,0,*56
1512601339.67,35361,3.94,73516.0,-4.45,-5.03,-5.03,0,*57
1512601340.88,35362,3.94,73516.8,-4.43,-4.99,-4.99,0,*52
1512601342.08,35363,3.94,73532.5,-4.43,-4.99,-4.99,0,*53
1512601343.29,35364,3.94,73530.0,-4.43,-4.99,-4.99,0,*54
1512601344.57,35365,3.94,73530.5,-4.43,-5.07,-5.07,0,*55
1512601345.81,35366,3.94,73522.3,-4.45,-5.11,-5.11,0,*50
1512601347.06,35367,3.94,73512.5,-4.45,-5.11,-5.11,0,*51
1512601348.33,35368,3.94,73510.3,-4.43,-5.07,-5.07,0,*58
1512601349.58,35369,3.94,73528.5,-4.43,-4.99,-5.07,0,*5F
1512601350.82,35370,3.94,73532.8,-4.45,-5.15,-5.11,0,*53
1512601352.07,35371,3.94,73538.3,-4.43,-5.07,-4.99,0,*56
1512601353.31,35372,3.94,73542.5,-4.43,-4.99,-5.11,0,*52
1512601354.55,35373,3.94,73546.0,-4.45,-5.15,-5.11,0,*50
1512601355.83,35374,3.94,73538.5,-4.43,-5.07,-5.07,0,*55
1512601357.07,35375,3.94,73532.8,-4.45,-5.11,-5.11,0,*52
1512601358.35,35376,3.94,73536.3,-4.43,-5.07,-5.07,0,*57
1512601359.59,35377,3.88,73538.3,-4.43,-4.99,-5.07,0,*50
1512601360.87,35378,3.94,73552.8,-4.43,-5.07,-5.11,0,*5E
1512601362.12,35379,3.94,73552.3,-4.45,-5.15,-5.03,0,*59
1512601363.37,35380,3.94,73550.8,-4.45,-5.11,-5.03,0,*5B
1512601364.61,35381,3.94,73552.8,-4.43,-5.07,-4.99,0,*59
1512601365.82,35382,3.94,73548.3,-4.43,-4.99,-4.99,0,*5C
1512601367.06,35383,3.94,73530.5,-4.43,-4.99,-5.07,0,*5B
1512601368.27,35384,3.94,73526.5,-4.43,-4.99,-4.99,0,*5A
1512601369.51,35385,3.94,73520.3,-4.43,-5.07,-4.99,0,*5D
1512601370.72,35386,3.94,73524.3,-4.43,-4.99,-4.99,0,*58
1512601371.96,35387,3.94,73528.5,-4.43,-5.07,-4.99,0,*5F
1512601373.17,35388,3.94,73520.5,-4.43,-4.99,-4.99,0,*56
1512601374.38,35389,3.94,73520.8,-4.43,-4.99,-4.99,0,*57
1512601375.59,35390,3.94,73522.8,-4.43,-4.99,-4.99,0,*5F
1512601376.82,35391,3.94,73528.3,-4.43,-4.99,-4.93,0,*54
1512601378.06,35392,3.94,73522.5,-4.43,-5.11,-4.99,0,*5C
1512601379.3,35393,3.94,73548.3,-4.43,-5.07,-4.99,0,*5A
1512601380.55,35394,3.94,73548.8,-4.43,-5.07,-4.99,0,*5D
1512601381.81,35395,3.94,73524.8,-4.43,-5.07,-4.93,0,*56
1512601383.02,35396,3.94,73514.5,-4.43,-4.99,-4.99,0,*59
1512601384.26,35397,3.94,73528.0,-4.43,-4.99,-5.11,0,*59
1512601385.49,35398,3.88,73538.3,-4.43,-4.93,-4.99,0,*5D
1512601386.7,35399,3.94,73546.5,-4.43,-4.99,-4.99,0,*56
1512601387.93,35400,3.94,73556.0,-4.43,-4.93,-4.99,0,*5B
1512601389.14,35401,3.94,73566.0,-4.43,-4.99,-4.99,0,*50
1512601390.36,35402,3.94,73570.5,-4.45,-5.03,-4.99,0,*57
1512601391.57,35403,3.94,73570.5,-4.43,-4.99,-4.99,0,*52
1512601392.81,35404,3.94,73574.5,-4.43,-4.99,-4.93,0,*5F
1512601394.04,35405,3.94,73576.0,-4.43,-4.99,-4.93,0,*5E
1512601395.28,35406,3.94,73574.5,-4.43,-4.99,-4.93,0,*5D
1512601396.48,35407,3.94,73566.0,-4.43,-4.99,-4.99,0,*56
1512601397.67,35408,3.94,73560.3,-4.45,-4.99,-4.99,0,*5F
1512601398.91,35409,3.94,73564.3,-4.41,-4.93,-4.89,0,*51
1512601400.15,35410,3.94,73566.0,-4.41,-4.89,-4.89,0,*52
1512601401.39,35411,3.94,73564.8,-4.41,-4.93,-4.89,0,*58
1512601402.63,35412,3.94,73560.0,-4.41,-4.93,-4.89,0,*5B
1512601403.87,35413,3.94,73562.0,-4.41,-4.81,-4.93,0,*52
1512601405.12,35414,3.94,73560.8,-4.41,-4.89,-4.89,0,*56
1512601406.38,35415,3.94,73558.3,-4.39,-4.89,-4.93,0,*53
1512601407.62,35416,3.94,73558.5,-4.41,-4.93,-4.89,0,*5F
1512601408.86,35417,3.94,73554.3,-4.41,-4.89,-4.93,0,*5E
1512601410.1,35418,3.94,73550.3,-4.41,-4.93,-4.89,0,*51
1512601411.34,35419,3.94,73544.3,-4.41,-4.89,-4.89,0,*5B
1512601412.61,35420,3.94,73552.8,-4.39,-4.89,-4.81,0,*56
1512601413.87,35421,3.94,73558.3,-4.39,-4.89,-4.81,0,*57
1512601415.11,35422,3.94,73558.5,-4.41,-4.89,-4.81,0,*5B
1512601416.38,35423,3.94,73558.5,-4.39,-4.89,-4.81,0,*55
1512601417.64,35424,3.94,73548.3,-4.39,-4.89,-4.81,0,*52
1512601418.89,35425,3.94,73552.8,-4.41,-4.89,-4.81,0,*5C
1512601420.15,35426,3.94,73558.0,-4.39,-4.89,-4.77,0,*59
1512601421.41,35427,3.94,73532.8,-4.39,-4.93,-4.81,0,*5A
1512601422.67,35428,3.94,73500.0,-4.39,-4.89,-4.89,0,*56
1512601423.93,35429,3.94,73484.3,-4.39,-4.81,-4.81,0,*57
1512601425.17,35430,3.94,73480.3,-4.41,-4.81,-4.89,0,*58
1512601426.44,35431,3.94,73484.0,-4.39,-4.89,-4.81,0,*56
1512601427.7,35432,3.94,73506.8,-4.39,-4.89,-4.89,0,*5D
1512601428.97,35433,3.94,73526.3,-4.39,-4.89,-4.89,0,*5C
1512601430.23,35434,3.94,73532.8,-4.39,-4.81,-4.81,0,*5B
1512601431.5,35435,3.94,73542.0,-4.39,-4.89,-4.89,0,*5A
1512601432.76,35436,3.94,73544.3,-4.39,-4.89,-4.81,0,*51
1512601433.99,35437,3.94,73556.5,-4.37,-4.85,-4.85,0,*56
1512601435.23,35438,3.94,73546.0,-4.37,-4.85,-4.77,0,*54
1512601436.46,35439,3.94,73538.8,-4.37,-4.85,-4.77,0,*55
1512601437.72,35440,3.94,73538.0,-4.39,-4.89,-4.89,0,*58
1512601438.99,35441,3.94,73554.3,-4.39,-4.89,-4.81,0,*51
1512601440.25,35442,3.94,73564.0,-4.39,-4.77,-4.81,0,*53
1512601441.48,35443,3.94,73570.0,-4.37,-4.85,-4.77,0,*58
1512601442.71,35444,3.94,73556.5,-4.37,-4.85,-4.85,0,*52
1512601443.98,35445,3.94,73586.8,-4.39,-4.89,-4.81,0,*55
1512601445.24,35446,3.94,73578.3,-4.39,-4.89,-4.81,0,*56
1512601446.47,35447,3.94,73568.8,-4.37,-4.77,-4.77,0,*51
1512601447.74,35448,3.94,73562.3,-4.35,-4.77,-4.77,0,*5C
1512601448.97,35449,3.94,73560.8,-4.37,-4.85,-4.77,0,*52
1512601450.2,35450,3.94,73546.3,-4.37,-4.77,-4.73,0,*53
1512601451.44,35451,3.94,73542.0,-4.37,-4.73,-4.85,0,*5F
1512601452.71,35452,3.94,73548.0,-4.35,-4.77,-4.77,0,*57
1512601453.94,35453,3.94,73548.0,-4.37,-4.77,-4.73,0,*50
1512601455.17,35454,3.94,73554.8,-4.37,-4.73,-4.77,0,*57
1512601456.41,35455,3.94,73548.5,-4.37,-4.73,-4.73,0,*52
1512601457.68,35456,3.94,73546.8,-4.35,-4.77,-4.77,0,*53
1512601458.91,35457,3.94,73564.5,-4.37,-4.85,-4.77,0,*5D
1512601460.14,35458,3.94,73572.3,-4.37,-4.77,-4.85,0,*52
1512601461.37,35459,3.94,73572.0,-4.37,-4.77,-4.77,0,*5E
1512601462.61,35460,3.94,73592.8,-4.37,-4.77,-4.77,0,*54
1512601463.87,35461,3.94,73578.0,-4.35,-4.85,-4.77,0,*5A
1512601465.11,35462,3.94,73566.0,-4.37,-4.85,-4.85,0,*56
1512601466.37,35463,3.94,73564.3,-4.35,-4.77,-4.77,0,*55
1512601467.61,35464,3.94,73560.0,-4.37,-4.77,-4.73,0,*54
1512601468.84,35465,3.94,73560.8,-4.37,-4.85,-4.77,0,*5C
1512601470.11,35466,3.94,73556.3,-4.35,-4.85,-4.85,0,*50
1512601471.38,35467,3.94,73562.5,-4.35,-4.85,-4.77,0,*5C
1512601472.65,35468,3.94,73564.0,-4.35,-4.77,-4.73,0,*5A
1512601473.92,35469,3.94,73558.3,-4.35,-4.85,-4.85,0,*5F
1512601475.19,35470,3.94,73562.3,-4.35,-4.85,-4.85,0,*57
1512601476.46,35471,3.94,73562.5,-4.35,-4.77,-4.85,0,*5B
1512601477.73,35472,3.94,73562.5,-4.35,-4.85,-4.85,0,*55
1512601479.0,35473,3.94,73566.8,-4.35,-4.77,-4.85,0,*59
1512601480.27,35474,3.94,73558.8,-4.35,-4.77,-4.89,0,*52
1512601481.52,35475,3.94,73552.8,-4.33,-4.81,-4.81,0,*54
1512601482.77,35476,3.94,73554.3,-4.33,-4.85,-4.81,0,*53
1512601484.04,35477,3.94,73550.8,-4.35,-4.73,-4.77,0,*54
1512601485.31,35478,3.94,73554.3,-4.35,-4.77,-4.73,0,*5B
1512601486.58,35479,3.94,73562.0,-4.35,-4.77,-4.77,0,*5E
1512601487.84,35480,3.94,73556.5,-4.35,-4.77,-4.77,0,*58
1512601489.11,35481,3.94,73548.5,-4.35,-4.85,-4.77,0,*54
1512601490.38,35482,3.94,73560.5,-4.35,-4.85,-4.85,0,*5A
1512601491.66,35483,3.94,73580.3,-4.35,-4.89,-4.85,0,*57
1512601492.91,35484,3.94,73584.5,-4.33,-4.81,-4.81,0,*5A
1512601494.16,35485,3.94,73576.0,-4.33,-4.81,-4.73,0,*56
1512601495.41,35486,3.94,73580.0,-4.33,-4.81,-4.81,0,*58
1512601496.66,35487,3.94,73586.8,-4.33,-4.73,-4.81,0,*54
1512601497.91,35488,3.94,73584.3,-4.33,-4.81,-4.73,0,*5B
1512601499.16,35489,3.94,73594.8,-4.33,-4.73,-4.81,0,*5A
1512601500.41,35490,3.94,73594.0,-4.33,-4.81,-4.73,0,*52
1512601501.66,35491,3.94,73578.5,-4.29,-4.81,-4.69,0,*53
1512601502.91,35492,3.94,73568.5,-4.33,-4.81,-4.73,0,*50
1512601504.16,35493,3.94,73566.5,-4.33,-4.73,-4.81,0,*51
1512601505.41,35494,3.94,73582.5,-4.33,-4.73,-4.73,0,*5B
1512601506.66,35495,3.94,73562.5,-4.29,-4.73,-4.73,0,*51
1512601507.91,35496,3.94,73574.0,-4.33,-4.73,-4.73,0,*59
1512601509.16,35497,3.94,73592.0,-4.33,-4.81,-4.73,0,*55
1512601510.4,35498,3.94,73590.3,-4.33,-4.73,-4.73,0,*57
1512601511.65,35499,3.94,73586.5,-4.33,-4.73,-4.73,0,*56
1512601512.9,35500,3.94,73584.0,-4.33,-4.73,-4.73,0,*57
1512601514.15,35501,3.94,73578.3,-4.29,-4.73,-4.73,0,*5D
1512601515.4,35502,3.94,73574.3,-4.29,-4.73,-4.73,0,*5E
1512601516.65,35503,3.94,73566.0,-4.33,-4.73,-4.73,0,*54
1512601517.9,35504,3.94,73568.5,-4.33,-4.69,-4.73,0,*58
1512601519.15,35505,3.88,73568.8,-4.33,-4.73,-4.73,0,*52
1512601520.4,35506,3.94,73572.0,-4.29,-4.69,-4.69,0,*5A
1512601521.65,35507,3.94,73570.8,-4.33,-4.73,-4.73,0,*50
1512601522.89,35508,3.94,73566.0,-4.33,-4.81,-4.73,0,*52
1512601524.15,35509,3.94,73556.5,-4.29,-4.81,-4.81,0,*55
1512601525.4,35510,3.94,73564.5,-4.29,-4.81,-4.85,0,*59
1512601526.65,35511,3.94,73552.3,-4.29,-4.81,-4.73,0,*51
1512601527.91,35512,3.94,73548.3,-4.29,-4.81,-4.81,0,*5F
1512601529.16,35513,3.94,73532.0,-4.29,-4.81,-4.85,0,*5A
1512601530.43,35514,3.94,73536.5,-4.27,-4.81,-4.81,0,*57
1512601531.69,35515,3.94,73526.0,-4.33,-4.81,-4.85,0,*57
1512601532.94,35516,3.94,73546.0,-4.29,-4.85,-4.81,0,*5F
1512601534.19,35517,3.94,73562.5,-4.29,-4.85,-4.81,0,*5E
1512601535.44,35518,3.94,73556.0,-4.29,-4.85,-4.81,0,*51
1512601536.69,35519,3.94,73550.3,-4.29,-4.85,-4.85,0,*54
1512601537.94,35520,3.94,73554.0,-4.29,-4.85,-4.85,0,*5E
1512601539.19,35521,3.94,73558.3,-4.29,-4.85,-4.85,0,*5F
1512601540.44,35522,3.94,73550.8,-4.29,-4.85,-4.93,0,*5B
1512601541.7,35523,3.94,73558.8,-4.29,-4.85,-4.85,0,*5D
1512601542.94,35524,3.94,73560.3,-4.33,-4.93,-4.85,0,*56
1512601544.19,35525,3.94,73564.8,-4.29,-4.93,-4.85,0,*5C
1512601545.44,35526,3.94,73564.0,-4.29,-4.93,-4.85,0,*5F
1512601546.7,35527,3.94,73566.5,-4.29,-4.93,-4.85,0,*5E
1512601547.92,35528,3.94,73560.5,-4.33,-4.99,-4.93,0,*57
1512601549.14,35529,3.94,73568.0,-4.29,-4.99,-4.93,0,*5D
1512601550.39,35530,3.94,73564.5,-4.29,-4.85,-4.93,0,*58
1512601551.62,35531,3.94,73550.3,-4.29,-4.99,-4.93,0,*54
1512601552.84,35532,3.94,73526.3,-4.29,-4.99,-4.93,0,*57
1512601554.07,35533,3.94,73512.5,-4.29,-4.99,-4.93,0,*56
1512601555.26,35534,3.94,73516.3,-4.29,-4.99,-4.99,0,*5B
1512601556.49,35535,3.94,73518.5,-4.29,-4.99,-4.93,0,*50
1512601557.74,35536,3.94,73518.8,-4.29,-4.93,-4.93,0,*59
1512601558.96,35537,3.94,73530.0,-4.29,-4.99,-4.93,0,*52
1512601560.18,35538,3.94,73524.5,-4.33,-4.93,-4.99,0,*56
1512601561.4,35539,3.94,73528.3,-4.29,-4.93,-4.99,0,*5C
1512601562.62,35540,3.94,73528.5,-4.33,-4.99,-4.93,0,*59
1512601563.84,35541,3.94,73538.3,-4.29,-4.93,-4.99,0,*53
1512601565.07,35542,3.94,73550.3,-4.33,-4.99,-4.93,0,*5B
1512601566.29,35543,3.94,73542.0,-4.29,-4.99,-4.93,0,*51
1512601567.54,35544,3.94,73548.3,-4.33,-4.93,-4.93,0,*57
1512601568.73,35545,3.94,73554.3,-4.29,-4.99,-4.99,0,*5D
1512601569.96,35546,3.94,73560.0,-4.29,-4.99,-4.93,0,*54
1512601571.2,35547,3.88,73558.5,-4.33,-4.93,-4.93,0,*54
1512601572.43,35548,3.94,73570.0,-4.29,-4.99,-4.93,0,*5A
1512601573.65,35549,3.94,73562.3,-4.29,-4.99,-4.93,0,*5B
1512601574.88,35550,3.94,73558.3,-4.29,-4.99,-4.93,0,*53
1512601576.13,35551,3.94,73570.0,-4.29,-4.93,-4.93,0,*58
1512601577.34,35552,3.94,73576.8,-4.33,-4.93,-4.99,0,*5A
1512601578.57,35553,3.94,73552.0,-4.33,-4.99,-4.93,0,*5B
1512601579.78,35554,3.94,73560.5,-4.33,-4.93,-4.99,0,*5C
1512601581.01,35555,3.94,73558.0,-4.29,-4.99,-4.93,0,*56
1512601582.25,35556,3.94,73550.5,-4.33,-4.93,-4.93,0,*54
1512601583.5,35557,3.94,73538.5,-4.33,-4.93,-4.93,0,*55
1512601584.75,35558,3.94,73542.8,-4.29,-4.93,-4.93,0,*51
1512601585.99,35559,3.94,73528.3,-4.29,-4.93,-4.93,0,*50
1512601587.24,35560,3.94,73518.0,-4.29,-4.93,-4.93,0,*5A
1512601588.47,35561,3.94,73532.3,-4.29,-4.99,-4.85,0,*56
1512601589.69,35562,3.94,73542.5,-4.29,-4.93,-4.99,0,*52
1512601590.92,35563,3.94,73534.3,-4.29,-4.99,-4.93,0,*53
1512601592.14,35564,3.94,73540.3,-4.29,-4.99,-4.93,0,*54
1512601593.36,35565,3.94,73548.3,-4.29,-4.99,-4.93,0,*55
1512601594.59,35566,3.94,73572.3,-4.29,-4.99,-4.93,0,*56
1512601595.87,35567,3.94,73586.0,-4.27,-4.89,-4.89,0,*53
1512601597.1,35568,3.94,73550.5,-4.33,-4.99,-4.85,0,*54
1512601598.32,35569,3.94,73540.0,-4.29,-4.99,-4.85,0,*5E
1512601599.57,35570,3.94,73554.0,-4.29,-4.93,-4.93,0,*5B
1512601600.8,35571,3.94,73562.0,-4.29,-4.99,-4.93,0,*50
1512601602.02,35572,3.94,73556.5,-4.29,-4.85,-4.99,0,*54
1512601603.24,35573,3.94,73562.5,-4.29,-4.99,-4.93,0,*52
1512601604.49,35574,3.94,73574.0,-4.33,-4.93,-4.93,0,*54
1512601605.71,35575,3.94,73596.0,-4.29,-4.93,-4.99,0,*54
1512601606.93,35576,3.94,73592.3,-4.29,-4.93,-4.99,0,*57
1512601608.16,35577,3.94,73574.5,-4.29,-4.99,-4.93,0,*56
1512601609.4,35578,3.94,73558.3,-4.29,-4.93,-4.93,0,*53
1512601610.65,35579,3.94,73556.0,-4.29,-4.93,-4.93,0,*52
1512601611.92,35580,3.94,73552.8,-4.27,-4.93,-4.93,0,*5A
1512601613.17,35581,3.94,73554.0,-4.29,-4.93,-4.93,0,*55
1512601614.39,35582,3.94,73574.5,-4.29,-4.93,-4.99,0,*5C
1512601615.62,35583,3.94,73582.8,-4.29,-4.99,-4.93,0,*5D
1512601616.81,35584,3.94,73558.5,-4.29,-4.99,-4.99,0,*50
1512601618.04,35585,3.94,73552.0,-4.29,-4.99,-4.93,0,*5B
1512601619.26,35586,3.94,73556.3,-4.29,-4.93,-4.99,0,*58
1512601620.48,35587,3.94,73552.3,-4.29,-4.99,-4.93,0,*59
1512601621.71,35588,3.94,73536.5,-4.29,-4.99,-4.93,0,*56
1512601622.96,35589,3.94,73538.3,-4.29,-4.93,-4.93,0,*5D
1512601624.18,35590,3.94,73532.5,-4.29,-4.99,-4.93,0,*5F
1512601625.38,35591,3.94,73532.0,-4.29,-4.99,-4.99,0,*54
1512601626.63,35592,3.94,73556.3,-4.29,-4.93,-4.93,0,*57
1512601627.85,35593,3.94,73530.3,-4.29,-4.93,-4.99,0,*5C
1512601629.1,35594,3.94,73504.3,-4.29,-4.93,-4.93,0,*51
1512601630.32,35595,3.94,73516.0,-4.29,-4.99,-4.93,0,*5A
1512601631.57,35596,3.94,73540.5,-4.29,-4.93,-4.93,0,*53
1512601632.77,35597,3.94,73584.3,-4.29,-4.99,-4.99,0,*52
1512601633.99,35598,3.94,73558.8,-4.29,-4.93,-4.99,0,*57
1512601635.21,35599,3.94,73566.0,-4.29,-4.99,-4.93,0,*56
1512601636.44,35600,3.94,73550.3,-4.29,-4.99,-4.93,0,*55
1512601637.69,35601,3.94,73566.8,-4.29,-4.93,-4.93,0,*5E
1512601638.91,35602,3.94,73560.3,-4.29,-4.93,-4.99,0,*57
1512601640.16,35603,3.94,73568.5,-4.29,-4.85,-4.93,0,*5B
1512601641.44,35604,3.94,73574.5,-4.27,-4.89,-4.89,0,*55
1512601642.66,35605,3.94,73568.3,-4.29,-4.99,-4.93,0,*50
1512601643.91,35606,3.94,73572.3,-4.29,-4.85,-4.93,0,*5E
1512601645.16,35607,3.94,73578.5,-4.29,-4.93,-4.93,0,*58
1512601646.43,35608,3.94,73556.3,-4.27,-4.93,-4.81,0,*5A
1512601647.71,35609,3.94,73552.0,-4.27,-4.81,-4.81,0,*58
1512601648.98,35610,3.94,73546.0,-4.27,-4.81,-4.77,0,*59
1512601650.25,35611,3.94,73552.3,-4.27,-4.81,-4.77,0,*58
1512601651.51,35612,3.94,73554.5,-4.29,-4.81,-4.81,0,*5C
1512601652.76,35613,3.94,73556.5,-4.29,-4.85,-4.85,0,*5D
1512601654.03,35614,3.94,73550.8,-4.27,-4.81,-4.77,0,*5D
1512601655.3,35615,3.94,73554.3,-4.27,-4.77,-4.77,0,*55
1512601656.55,35616,3.94,73534.3,-4.25,-4.77,-4.81,0,*5D
1512601657.82,35617,3.94,73518.3,-4.27,-4.81,-4.77,0,*5E
1512601659.09,35618,3.94,73536.8,-4.27,-4.77,-4.81,0,*51
1512601660.34,35619,3.94,73568.0,-4.25,-4.81,-4.81,0,*5B
1512601661.61,35620,3.94,73566.5,-4.27,-4.81,-4.77,0,*5A
1512601662.88,35621,3.94,73532.5,-4.27,-4.77,-4.77,0,*52
1512601664.16,35622,3.94,73510.3,-4.27,-4.81,-4.77,0,*58
1512601665.43,35623,3.94,73500.0,-4.27,-4.81,-4.77,0,*59
1512601666.7,35624,3.94,73560.5,-4.27,-4.77,-4.77,0,*57
1512601667.97,35625,3.94,73586.8,-4.27,-4.81,-4.81,0,*56
1512601669.22,35626,3.94,73564.5,-4.25,-4.81,-4.69,0,*51
1512601670.5,35627,3.94,73556.5,-4.27,-4.77,-4.81,0,*5D
1512601671.77,35628,3.94,73558.8,-4.27,-4.81,-4.81,0,*5B
1512601673.04,35629,3.94,73558.8,-4.27,-4.69,-4.77,0,*55
1512601674.29,35630,3.94,73558.5,-4.25,-4.81,-4.81,0,*50
1512601675.54,35631,3.94,73554.8,-4.25,-4.81,-4.81,0,*51
1512601676.79,35632,3.94,73552.8,-4.25,-4.81,-4.77,0,*5B
1512601678.03,35633,3.94,73548.0,-4.25,-4.77,-4.77,0,*53
1512601679.3,35634,3.94,73538.5,-4.27,-4.77,-4.77,0,*56
1512601680.54,35635,3.94,73544.0,-4.25,-4.77,-4.77,0,*55
1512601681.79,35636,3.94,73548.8,-4.25,-4.77,-4.81,0,*5F
1512601683.06,35637,3.94,73544.0,-4.27,-4.81,-4.77,0,*5C
1512601684.33,35638,3.94,73524.0,-4.27,-4.77,-4.77,0,*5A
1512601685.58,35639,3.94,73516.5,-4.25,-4.77,-4.77,0,*59
1512601686.8,35640,3.94,73512.5,-4.25,-4.81,-4.65,0,*5D
1512601688.05,35641,3.94,73552.8,-4.25,-4.81,-4.77,0,*5F
1512601689.32,35642,3.94,73536.3,-4.27,-4.77,-4.77,0,*57
1512601690.57,35643,3.94,73560.5,-4.25,-4.81,-4.81,0,*54
1512601691.84,35644,3.94,73578.3,-4.27,-4.77,-4.77,0,*51
1512601693.08,35645,3.94,73570.3,-4.25,-4.77,-4.77,0,*52
1512601694.32,35646,3.94,73558.5,-4.25,-4.77,-4.77,0,*51
1512601695.57,35647,3.94,73560.3,-4.25,-4.77,-4.77,0,*50
1512601696.81,35648,3.94,73554.8,-4.25,-4.81,-4.77,0,*56
1512601698.06,35649,3.94,73558.3,-4.25,-4.77,-4.77,0,*5E
1512601699.3,35650,3.94,73556.3,-4.25,-4.81,-4.77,0,*5F
1512601700.55,35651,3.94,73544.8,-4.25,-4.77,-4.77,0,*57
1512601701.79,35652,3.94,73540.5,-4.25,-4.77,-4.81,0,*5D
1512601703.04,35653,3.94,73540.8,-4.25,-4.77,-4.69,0,*5A
1512601704.29,35654,3.94,73538.0,-4.25,-4.81,-4.77,0,*5B
1512601705.53,35655,3.94,73538.0,-4.25,-4.77,-4.77,0,*53
1512601706.8,35656,3.94,73538.5,-4.23,-4.73,-4.73,0,*56
1512601708.07,35657,3.94,73540.3,-4.23,-4.73,-4.77,0,*53
1512601709.34,35658,3.94,73550.0,-4.23,-4.77,-4.73,0,*5C
1512601710.59,35659,3.94,73512.3,-4.23,-4.73,-4.65,0,*5E
1512601711.86,35660,3.94,73510.5,-4.23,-4.77,-4.77,0,*53
1512601713.13,35661,3.94,73496.3,-4.23,-4.73,-4.73,0,*52
1512601714.4,35662,3.94,73484.3,-4.23,-4.73,-4.73,0,*51
1512601715.67,35663,3.94,73500.8,-4.23,-4.73,-4.77,0,*54
1512601716.92,35664,3.94,73514.8,-4.25,-4.77,-4.69,0,*5E
1512601718.16,35665,3.94,73520.8,-4.25,-4.77,-4.77,0,*50
1512601719.43,35666,3.94,73516.8,-4.23,-4.73,-4.73,0,*55
1512601720.68,35667,3.94,73506.5,-4.21,-4.73,-4.73,0,*56
1512601721.96,35668,3.94,73502.0,-4.23,-4.73,-4.73,0,*5B
1512601723.23,35669,3.94,73516.0,-4.23,-4.73,-4.73,0,*5A
1512601724.48,35670,3.94,73510.3,-4.21,-4.73,-4.73,0,*50